SCP
0 0 0 0 0 0 0 0 0 0 0 0 0 0 0 0 1 1 2 3 3 3 4 5 5 3 2 3 3 3 3 3 2 2 2 2 2 2 2 1 1 1 1 1
0 0 0 0 0 0 0 0 0 0 0 0 0 0 0 0 0 1 1 2 3 2 3 4 4 2 2 3 3 3 3 3 2 2 2 2 2 2 1 1 1 1 1 1
0 0 0 0 0 0 0 0 0 0 0 0 0 0 0 0 0 1 1 1 2 2 2 3 2 1 2 2 3 3 3 3 3 2 2 2 2 2 1 1 1 1 1 0
0 0 0 0 0 0 0 0 0 0 0 0 0 0 0 0 0 0 1 1 1 1 1 1 1 1 2 2 3 3 3 3 3 2 2 2 2 2 1 1 1 1 0 0
0 0 0 0 0 0 0 0 0 0 0 0 0 0 0 0 0 0 0 0 0 0 0 0 0 1 2 2 2 2 2 2 2 2 2 2 2 2 1 1 1 1 0 0
0 0 0 0 0 0 0 0 0 0 0 0 0 0 0 0 0 0 0 0 0 0 0 0 0 0 1 2 2 2 2 2 2 2 2 2 1 1 1 1 1 1 0 0
0 0 0 0 0 0 0 0 0 0 0 0 0 0 0 0 0 0 0 0 0 0 0 0 0 0 1 2 2 2 2 2 2 2 2 2 1 1 1 1 1 1 0 0
0 0 0 0 0 0 0 0 0 0 0 0 0 0 0 0 0 0 0 0 0 0 0 0 0 0 1 1 2 2 2 2 2 2 2 2 1 1 1 1 1 1 1 0
0 0 0 0 0 0 0 0 0 0 0 0 0 0 0 0 0 0 0 0 0 0 0 0 0 0 0 1 1 2 2 1 1 2 2 2 2 1 1 1 1 1 1 0
0 0 0 0 0 0 0 0 0 0 0 0 0 0 0 0 0 0 0 0 0 0 0 0 0 0 0 0 1 1 1 1 1 1 2 2 2 1 1 1 1 1 1 1
0 0 0 0 0 0 0 0 0 0 0 0 0 0 0 0 0 0 0 0 0 0 0 0 0 0 0 0 0 0 1 1 1 1 2 2 2 2 1 1 1 1 1 1
0 0 0 0 0 0 0 0 0 0 0 0 0 0 0 0 0 0 0 0 0 0 0 0 0 0 0 0 0 0 0 0 1 1 1 2 2 2 1 1 1 1 1 1
0 0 0 0 0 0 0 0 0 0 0 0 0 0 0 0 0 0 0 0 0 0 0 0 0 0 0 0 0 0 0 0 0 1 1 1 2 2 1 1 1 1 1 1
0 0 0 0 0 0 0 0 0 0 0 0 0 0 0 0 0 0 0 0 0 0 0 0 0 0 0 0 0 0 0 0 0 0 1 1 1 2 2 1 1 1 1 1
0 0 0 0 0 0 0 0 0 0 0 0 0 0 0 0 0 0 0 0 0 0 0 0 0 0 0 0 0 0 0 0 0 0 0 1 1 1 1 1 1 1 1 1
0 0 0 0 0 0 0 0 0 0 0 0 0 0 0 0 0 0 0 0 0 0 0 0 0 0 0 0 0 0 0 0 0 0 0 0 1 1 1 1 1 1 1 1
0 0 0 0 0 0 0 0 0 0 0 0 0 0 0 0 0 0 0 0 0 0 0 0 0 0 0 0 0 0 0 0 0 0 0 0 0 0 0 1 1 1 1 1
0 0 0 0 0 0 0 0 0 0 0 0 0 0 0 0 0 0 0 0 0 0 0 0 0 0 0 0 0 0 0 0 0 0 0 0 0 0 0 1 1 1 1 0
0 0 0 0 0 0 0 0 0 0 0 0 0 0 0 0 0 0 0 0 0 0 0 0 0 0 0 0 0 0 0 0 0 0 0 0 0 0 0 1 1 1 1 0
0 0 0 0 0 0 0 0 0 0 0 0 0 0 0 0 0 0 0 0 0 0 0 0 0 0 0 0 0 0 0 0 0 0 0 0 0 0 0 1 1 1 1 0
0 0 0 0 0 0 0 0 0 0 0 0 0 0 0 0 0 0 0 0 0 0 0 0 0 0 0 0 0 0 0 0 0 0 0 0 0 0 0 1 1 1 0 0
0 0 0 0 0 0 0 0 0 0 0 0 0 0 0 0 0 0 0 0 0 0 0 0 0 0 0 0 0 0 0 0 0 0 0 0 0 0 0 0 0 0 0 0
0 0 0 0 0 0 0 0 0 0 0 0 0 0 0 0 0 0 0 0 0 0 0 0 0 0 0 0 0 0 0 0 0 0 0 0 0 0 0 0 0 0 0 0
0 0 0 0 0 0 0 0 0 0 0 0 0 0 0 0 0 0 0 0 0 0 0 0 0 0 0 0 0 0 0 0 0 0 0 0 0 0 0 0 0 0 0 0
0 0 0 0 0 0 0 0 0 0 0 0 0 0 0 0 0 0 0 0 0 0 0 0 0 0 0 0 0 0 0 0 0 0 0 0 0 0 0 0 0 0 0 0
0 0 0 0 0 0 0 0 0 0 0 0 0 0 0 0 0 0 0 0 0 0 0 0 0 0 0 0 0 0 0 0 0 0 0 0 0 0 0 0 0 0 0 0
Wind_Speed
3 4 1 2 3 3 3 4 7 7 4 4 7 9 9 5 4 4 4 4 4 5 4 3 3 2 2 1 2 3 3 3 3 2 2 2 1 1 1 2 3 3 3 3
4 1 3 2 2 2 3 4 6 7 3 4 6 9 8 4 4 5 5 5 4 4 3 1 1 2 2 2 2 3 3 3 3 2 2 1 2 1 1 1 2 3 3 3
1 3 3 2 2 2 4 4 4 5 6 3 3 6 5 4 3 3 3 4 4 3 3 2 1 2 1 1 2 3 2 3 2 2 2 2 1 1 0 1 2 2 2 3
1 3 2 2 2 2 4 3 4 4 3 4 1 4 7 4 4 4 4 3 2 2 3 2 2 2 2 2 1 2 2 2 2 2 3 4 3 2 2 1 1 2 2 2
2 2 2 2 3 1 4 4 4 3 1 3 2 2 7 3 5 6 6 4 2 3 2 2 2 2 2 1 1 2 2 2 2 2 3 3 3 2 1 1 1 1 1 2
2 2 1 2 3 2 2 3 3 2 2 3 3 3 6 3 5 6 5 5 3 2 2 1 1 1 0 0 0 1 1 1 1 2 3 3 3 3 3 2 2 1 1 1
5 4 2 1 3 3 4 4 4 5 3 5 2 2 6 4 5 4 4 4 3 2 2 1 1 1 0 0 0 1 1 1 1 2 2 3 3 4 4 4 3 2 2 1
2 6 3 2 1 1 1 2 2 2 4 5 2 4 5 3 5 4 3 3 3 3 3 2 1 1 1 1 1 1 1 1 1 1 2 2 3 2 2 3 2 3 3 3
1 5 4 3 2 0 0 1 2 2 2 3 4 4 5 5 7 7 6 6 5 4 4 3 3 2 1 1 1 2 2 2 2 1 1 2 2 2 3 2 2 2 2 2
2 4 5 4 3 2 1 1 2 2 1 4 5 3 4 6 7 7 7 6 6 5 5 4 3 2 2 2 2 1 1 2 1 1 1 1 1 2 2 2 2 2 2 2
1 2 5 3 1 1 1 1 1 1 2 2 4 6 3 3 3 4 6 6 5 5 5 5 3 3 2 3 2 1 1 0 0 1 1 0 1 0 1 1 2 2 2 2
1 2 3 5 3 2 1 2 2 2 3 2 3 7 3 2 3 4 5 6 5 5 5 4 3 3 3 3 2 2 1 1 1 1 1 0 0 0 0 1 1 1 1 2
2 3 2 5 4 4 1 1 1 1 1 2 3 8 3 5 5 5 5 6 6 6 5 4 3 3 3 3 2 2 2 2 2 1 1 0 0 0 1 1 1 1 1 1
3 2 4 6 5 3 4 4 1 2 2 4 7 9 8 8 7 7 7 6 6 6 5 4 4 4 4 3 2 2 2 2 2 1 1 1 1 1 1 1 1 1 0 1
3 2 4 6 7 5 6 7 5 5 6 7 8 8 10 7 6 6 6 6 6 6 7 6 4 4 4 4 3 2 2 2 2 1 2 2 1 1 0 0 1 1 1 1
2 1 2 5 5 5 7 8 8 7 7 8 9 10 6 6 4 4 5 5 6 6 6 6 6 6 5 4 4 3 3 2 2 1 2 2 2 1 0 0 1 1 1 1
1 2 0 5 5 4 7 7 7 5 5 5 7 8 6 6 6 5 4 4 5 6 6 6 6 6 6 4 3 3 2 2 1 1 2 2 2 1 0 0 1 0 1 1
4 3 2 2 3 5 6 1 3 5 5 4 5 5 5 6 6 4 2 3 5 6 6 6 5 6 5 5 4 3 2 2 1 2 2 2 2 1 1 0 0 0 1 1
4 5 2 1 3 9 6 2 1 3 6 3 4 6 5 5 4 3 3 3 4 5 5 5 5 5 4 4 3 3 2 2 2 2 2 2 2 2 1 1 1 1 0 1
3 3 3 2 3 7 5 2 1 1 5 3 3 5 5 4 3 5 4 5 5 5 4 5 5 4 4 4 3 2 2 2 3 3 3 2 2 1 1 1 1 1 0 1
1 1 3 4 5 9 5 2 2 2 6 4 3 4 3 3 5 6 5 5 5 5 5 4 4 3 4 3 2 2 2 3 3 3 2 2 2 1 1 0 1 1 1 1
6 5 5 4 5 9 2 3 4 7 3 3 4 4 4 4 5 4 4 5 5 5 5 4 3 4 4 3 2 2 2 3 3 3 2 2 2 2 2 1 1 1 1 1
7 8 6 8 9 5 4 6 5 3 3 4 4 4 4 4 4 5 4 4 5 5 5 4 3 4 4 3 2 2 3 3 3 2 2 2 3 2 2 1 1 1 1 1
5 3 3 5 8 6 6 5 4 4 4 4 4 4 3 4 4 4 4 4 4 4 4 4 3 3 4 3 2 2 3 3 2 2 2 2 2 2 2 2 1 1 1 1
6 5 4 7 7 5 5 6 5 4 3 4 3 3 4 3 4 4 4 4 4 5 4 3 3 3 4 3 3 3 3 2 2 2 2 2 2 2 2 2 2 2 1 1
7 8 8 9 7 5 6 5 4 4 4 4 3 3 3 3 4 3 3 4 4 4 4 4 3 3 3 3 3 3 2 2 1 1 2 2 2 2 2 2 3 4 3 4
Wind_Direction
27 63 45 250 222 238 256 252 274 277 285 292 271 278 286 294 296 281 270 252 255 253 249 221 207 188 172 178 179 177 176 163 152 149 154 148 184 220 181 200 178 175 177 172
37 338 254 260 266 266 270 267 273 289 298 287 273 277 281 296 281 272 267 255 248 262 248 233 191 171 169 178 195 182 177 176 168 169 168 152 159 226 204 194 189 175 176 178
173 267 288 309 316 292 277 248 268 287 315 307 289 293 293 320 305 301 285 261 240 235 221 227 192 188 176 195 202 185 180 184 173 149 123 109 95 77 141 189 199 185 181 181
266 285 315 319 313 298 274 255 275 291 326 301 329 291 292 313 322 322 309 296 266 269 228 208 176 183 206 214 201 181 173 180 177 160 152 156 167 197 218 205 216 204 187 176
295 306 333 310 294 297 262 297 286 270 250 301 286 241 288 338 321 309 306 306 299 289 244 207 190 197 216 213 192 191 167 170 185 191 180 177 181 194 187 155 184 211 192 181
275 289 271 265 299 282 306 348 2 32 64 296 250 201 287 306 293 303 309 313 304 304 300 268 203 162 169 98 87 157 161 178 195 198 198 189 184 179 171 178 189 218 208 193
332 319 318 338 343 358 34 44 16 356 352 262 274 213 262 293 302 284 287 305 317 310 305 318 2 11 58 68 285 187 173 203 216 204 205 201 193 188 185 191 197 211 207 216
341 303 307 341 305 283 330 121 151 236 257 289 313 247 261 309 332 348 2 2 357 343 341 338 315 269 249 253 247 212 198 215 233 226 220 204 192 200 203 202 207 219 216 215
206 275 311 321 316 158 54 203 184 161 282 284 274 284 298 343 355 4 9 11 359 342 348 348 350 359 347 289 272 226 213 219 226 232 235 206 198 212 214 207 219 224 230 227
177 267 298 316 348 356 159 152 78 106 253 282 290 282 290 327 330 343 351 347 339 340 343 340 341 344 337 303 280 241 199 210 214 216 226 240 216 221 225 198 214 229 237 236
123 200 305 335 269 267 32 42 108 157 201 221 279 276 267 286 309 324 324 326 329 330 332 332 334 333 329 329 337 333 332 20 312 256 256 243 226 237 267 228 223 226 223 227
137 133 269 266 275 306 168 185 148 170 258 236 254 274 307 313 327 333 326 326 331 334 331 329 340 354 347 337 340 352 4 4 334 303 283 238 205 145 257 274 267 257 229 229
121 110 347 336 335 353 336 294 165 172 166 214 234 268 322 345 347 342 332 332 334 336 335 347 358 359 341 328 337 343 355 346 334 340 323 335 360 258 253 269 281 285 278 266
95 146 189 218 241 251 277 284 259 164 207 243 241 266 299 322 329 328 326 329 335 339 339 346 353 348 343 338 334 337 342 339 340 359 1 322 288 270 260 267 283 273 286 273
95 209 240 254 262 258 263 267 248 221 219 229 259 263 281 300 304 305 317 330 342 346 347 347 347 342 343 345 345 346 340 341 351 4 354 329 315 306 321 0 358 357 337 295
84 216 280 282 272 266 269 266 255 248 245 249 268 274 285 302 308 316 322 330 334 336 339 343 342 338 338 335 333 339 343 339 358 360 334 329 331 336 355 21 21 9 343 326
167 152 265 279 310 328 275 249 225 225 224 223 245 265 311 316 309 301 303 318 322 328 330 333 333 328 324 323 322 323 321 329 350 340 338 337 330 326 291 78 59 355 337 350
163 152 182 285 354 258 249 257 217 230 243 239 265 293 302 293 292 281 282 314 322 323 323 324 324 322 322 323 332 325 328 340 344 340 342 343 340 321 323 82 70 14 8 339
172 158 164 185 272 279 289 288 228 230 269 253 267 292 310 325 329 304 322 324 304 302 305 306 309 310 317 320 326 339 349 349 356 355 348 342 336 334 347 27 8 2 359 333
90 129 147 171 231 256 264 281 277 99 283 283 274 287 305 346 325 291 314 320 316 317 315 314 316 317 320 319 332 357 353 354 351 345 338 337 337 341 337 328 329 336 343 337
137 159 183 199 233 264 261 270 89 159 262 294 271 271 267 248 248 279 305 311 312 313 313 316 321 322 317 323 348 358 351 342 330 329 336 341 338 337 321 335 344 343 1 15
181 182 197 178 214 254 224 138 188 227 261 272 267 267 264 270 286 296 301 305 312 318 321 324 329 326 325 337 359 353 338 332 336 341 347 345 344 344 360 33 5 0 33 41
204 194 190 198 219 247 203 210 227 218 246 259 262 274 268 276 286 297 299 302 309 313 319 324 327 328 332 339 359 345 330 338 348 355 353 355 358 4 8 26 9 6 26 34
244 194 199 250 259 256 253 251 255 239 243 258 260 264 262 269 280 291 299 305 311 315 321 325 332 335 332 337 353 337 328 342 358 359 353 359 12 15 14 5 356 2 354 348
218 181 207 251 268 283 260 241 246 253 259 271 272 261 258 261 277 283 292 299 305 314 321 328 327 321 318 329 342 339 341 352 1 356 353 359 9 19 13 11 6 344 326 315
202 190 194 230 227 216 250 251 240 242 258 260 264 272 274 258 262 277 282 291 301 311 321 330 330 324 318 328 334 334 339 352 356 352 356 356 1 10 17 21 11 7 358 1